Retour au catalogue

COSMOS 340

ActifMilitaireLEO
NORAD 4387·PAYLOAD·🇷🇺 Russia

Lancé Apr 25, 1970 depuis Plesetsk Cosmodrome

Loading…

Prochains Passages (prochaines 24 heures)

TLE

FraisSource: Space-Track

Époque: Sep 14, 2026, 15:36 UTC

1 04387U 70036E   26257.65051060  .00000012  00000-0  16698-3 0  9999
2 04387  74.0295 152.1916 0039110 114.1490 258.9482 12.56337780585626

Suivez COSMOS 340 en temps réel avec AllMySat

Download on the App Store